Location: Canazei
(46.4667°N, 11.7667°E)
Time: 04:08:34
(UTC+00:00)

USA 305 - Pass Details

Date: 21 April 2021
Orbit: 567 x 573 km, 54.0° (Epoch: 07 May)

Event Time Altitude Azimuth Distance (km) Brightness Sun altitude
Exits shadow 02:36:28 - 300° (WNW) 2,599 6.0 -15.8°
Reaches altitude 10° 02:38:23 10° 307° (NW) 1,881 5.4 -15.6°
Maximum altitude 02:42:22 37° 15° (NNE) 907 4.4 -15.0°
Drops below altitude 10° 02:46:22 10° 84° (E) 1,879 6.5 -14.5°
Sets 02:48:45 0° 93° (E) 2,776 7.3 -14.1°
